Weather History for KPBI - March, 2014

Change the Weather History Date:

Thursday, March 27, 2014

  Actual Average Record
Temperature  
Mean Temperature 67 °F 71 °F  
Max Temperature 76 °F 80 °F 94 °F (1928)
Min Temperature 57 °F 63 °F 44 °F (1971)
Degree Days  
Heating Degree Days 0 0  
Month to date heating degree days 7 22  
Since 1 July heating degree days 122 227  
Cooling Degree Days 2 7  
Month to date cooling degree days 171 165  
Year to date cooling degree days 517 400  
Growing Degree Days 16 (Base 50)    
Moisture  
Dew Point 54 °F    
Average Humidity 63    
Maximum Humidity 80    
Minimum Humidity 46    
Precipitation  
Precipitation 0.00 in 0.15 in 1.90 in (2003)
Month to date precipitation 1.71 4.00  
Year to date precipitation 13.19 9.95  
Snow  
Snow 0.00 in - - ()
Month to date snowfall 0.0  
Since 1 July snowfall 0.0  
Snow Depth 0.00 in    
Sea Level Pressure  
Sea Level Pressure 30.24 in    
Wind  
Wind Speed 16 mph (East)    
Max Wind Speed 26 mph    
Max Gust Speed 33 mph    
Visibility 10 miles    
Events      
T = Trace of Precipitation, MM = Missing Value Source: NWS Daily Summary

Daily Weather History Graph

Daily Weather History Graph

Search for Another Location

Airport or City:

Trip Planner

Search our weather history database for the weather conditions in past years. The results will help you decide how hot, cold, wet, or windy it might be!

Date:

Astronomy

Mar. 27, 2014 Rise Set
Actual Time 7:16 AM EDT 7:35 PM EDT
Civil Twilight 6:53 AM EDT 7:58 PM EDT
Nautical Twilight 6:26 AM EDT 8:25 PM EDT
Astronomical Twilight 5:59 AM EDT 8:52 PM EDT
Moon 4:48 AM EDT (3/27) 4:36 PM EDT (3/27)
Length of Visible Light 13h 04m
Length of Day
12h 18m
Waning Crescent, 13% of the Moon is Illuminated
Mar 27
Waning Crescent
Mar 30
New
Apr 7
First Quarter
Apr 15
Full
Apr 22
Last Quarter

Hourly Weather History & Observations

Time (EDT) Temp. Dew Point Humidity Pressure Visibility Wind Dir Wind Speed Gust Speed Precip Events Conditions
12:53 AM 57.9 °F 52.0 °F 81% 30.24 in 10.0 mi WNW 6.9 mph - N/A   Mostly Cloudy
1:53 AM 64.0 °F 48.9 °F 58% 30.22 in 10.0 mi East 13.8 mph - N/A   Mostly Cloudy
2:53 AM 66.0 °F 48.9 °F 54% 30.21 in 10.0 mi ESE 13.8 mph - N/A   Mostly Cloudy
3:53 AM 66.0 °F 52.0 °F 60% 30.21 in 10.0 mi East 15.0 mph - N/A   Overcast
4:53 AM 66.0 °F 50.0 °F 56% 30.19 in 10.0 mi East 16.1 mph - N/A   Overcast
5:53 AM 66.0 °F 51.1 °F 59% 30.21 in 10.0 mi East 10.4 mph - N/A   Mostly Cloudy
6:53 AM 66.9 °F 51.1 °F 57% 30.22 in 10.0 mi East 15.0 mph 21.9 mph N/A   Mostly Cloudy
7:53 AM 66.9 °F 52.0 °F 59% 30.22 in 10.0 mi East 18.4 mph - N/A   Mostly Cloudy
8:53 AM 69.1 °F 52.0 °F 54% 30.25 in 10.0 mi ESE 17.3 mph - N/A   Mostly Cloudy
9:53 AM 70.0 °F 54.0 °F 57% 30.27 in 10.0 mi East 19.6 mph 27.6 mph N/A   Mostly Cloudy
10:53 AM 71.1 °F 54.0 °F 55% 30.30 in 10.0 mi East 18.4 mph - N/A   Mostly Cloudy
11:53 AM 72.0 °F 55.0 °F 55% 30.31 in 10.0 mi East 16.1 mph 24.2 mph N/A   Mostly Cloudy
12:53 PM 73.9 °F 55.9 °F 53% 30.29 in 10.0 mi East 13.8 mph 25.3 mph N/A   Mostly Cloudy
1:53 PM 75.9 °F 53.1 °F 45% 30.28 in 10.0 mi ESE 13.8 mph 20.7 mph N/A   Mostly Cloudy
2:53 PM 73.9 °F 57.0 °F 55% 30.27 in 10.0 mi East 10.4 mph 19.6 mph N/A   Mostly Cloudy
3:53 PM 72.0 °F 55.9 °F 57% 30.26 in 10.0 mi ENE 10.4 mph - N/A   Mostly Cloudy
4:53 PM 73.0 °F 57.0 °F 57% 30.26 in 10.0 mi NNE 12.7 mph - N/A   Overcast
5:53 PM 72.0 °F 57.0 °F 59% 30.25 in 10.0 mi East 12.7 mph - N/A   Mostly Cloudy
6:53 PM 72.0 °F 57.0 °F 59% 30.25 in 10.0 mi East 13.8 mph - N/A   Mostly Cloudy
7:53 PM 72.0 °F 59.0 °F 64% 30.22 in 10.0 mi East 17.3 mph - N/A   Mostly Cloudy
8:53 PM 72.0 °F 60.1 °F 66% 30.21 in 10.0 mi ESE 19.6 mph 32.2 mph N/A   Mostly Cloudy
9:53 PM 73.0 °F 59.0 °F 61% 30.22 in 10.0 mi SE 20.7 mph - N/A   Scattered Clouds
10:53 PM 73.0 °F 59.0 °F 61% 30.22 in 10.0 mi ESE 17.3 mph 25.3 mph N/A   Scattered Clouds
11:53 PM 73.0 °F 60.1 °F 64% 30.21 in 10.0 mi SE 18.4 mph 25.3 mph N/A   Overcast